This is the latest recevied weather packets stored in our database for station/object KB9ZI. If no packets are shown the sender has not sent any weather packets the latest 10 day(s).
| Time | Temp. | Humidity | Pressure | Rain* | Wind** | Luminosity | Snow |
|---|---|---|---|---|---|---|---|
| 1777414526 | 12.78° C | 54% | 1014.5 hPa | 0 mm | - | - | - |
| 1777414405 | 12.78° C | 54% | 1014.6 hPa | 0 mm | - | - | - |
| 1777414350 | 12.78° C | 51% | 1014.6 hPa | 0 mm | - | - | - |
| 1777414167 | 12.78° C | 51% | 1014.6 hPa | 0 mm | - | - | - |
| 1777414117 | 12.78° C | 51% | 1014.8 hPa | 0 mm | - | - | - |
| 1777413903 | 12.78° C | 51% | 1014.8 hPa | 0 mm | - | - | - |
| 1777413783 | 13.33° C | 50% | 1014.6 hPa | 0 mm | - | - | - |
| 1777413663 | 13.33° C | 51% | 1014.7 hPa | 0 mm | - | - | - |
| 1777413551 | 13.33° C | 48% | 1014.7 hPa | 0 mm | - | - | - |
| 1777413520 | 13.33° C | 49% | 1014.7 hPa | 0 mm | - | - | - |
| 1777413367 | 13.33° C | 50% | 1014.7 hPa | 0 mm | - | - | - |
| 1777413184 | 13.33° C | 50% | 1014.7 hPa | 0 mm | - | - | - |
| 1777413064 | 13.33° C | 49% | 1014.7 hPa | 0 mm | - | - | - |
| 1777412945 | 13.33° C | 53% | 1014.7 hPa | 0 mm | - | - | - |
| 1777412819 | 13.33° C | 49% | 1014.7 hPa | 0 mm | - | - | - |
| 1777412686 | 13.89° C | 49% | 1014.7 hPa | 0 mm | - | - | - |
| 1777412623 | 13.89° C | 48% | 1014.7 hPa | 0 mm | - | - | - |
| 1777412437 | 13.89° C | 51% | 1014.6 hPa | 0 mm | - | - | - |
| 1777412317 | 13.89° C | 50% | 1014.7 hPa | 0 mm | - | - | - |
| 1777412259 | 13.89° C | 53% | 1014.8 hPa | 0 mm | - | - | - |
| 1777412070 | 13.33° C | 50% | 1015 hPa | 0 mm | - | - | - |
| 1777412021 | 13.33° C | 50% | 1014.8 hPa | 0 mm | - | - | - |
| 1777411830 | 13.33° C | 52% | 1015 hPa | 0 mm | - | - | - |
| 1777411710 | 13.33° C | 50% | 1015 hPa | 0 mm | - | - | - |
| 1777411589 | 13.33° C | 49% | 1015.2 hPa | 0 mm | - | - | - |
* Rain latest hour (hover to see other rain measurements)
** Current wind speed in m/s (hover to see current wind gust speed)